Fairbanks Eiels, AK

11:15 AM AKDT on July 28, 2017 (GMT -0800)
Eielson Air Force Base

Weather History for PAEI - February, 2013

Change the Weather History Date:

Friday, February 15, 2013

  Actual Average Record
Temperature  
Mean Temperature 10 °F -  
Max Temperature 20 °F 2 °F 30 °F (1999)
Min Temperature -2 °F -15 °F -52 °F (1950)
Degree Days  
Heating Degree Days 56    
Moisture  
Dew Point 4 °F    
Average Humidity 80    
Maximum Humidity 88    
Minimum Humidity 73    
Precipitation  
Precipitation 0.01 in - - ()
Sea Level Pressure  
Sea Level Pressure 29.86 in    
Wind  
Wind Speed 5 mph (WSW)    
Max Wind Speed 10 mph    
Max Gust Speed -    
Visibility 7 miles    
Events Snow    
Averages and records for this station are not official NWS values.
T = Trace of Precipitation, MM = Missing Value Source: NWS Daily Summary

Daily Weather History Graph

Daily Weather History Graph

Search for Another Location

Airport or City:

Trip Planner

Search our weather history database for the weather conditions in past years. The results will help you decide how hot, cold, wet, or windy it might be!

Date:

Astronomy

Feb. 15, 2013 Rise Set
Actual Time 8:44 AM AKST 5:21 PM AKST
Civil Twilight 7:52 AM AKST 6:13 PM AKST
Nautical Twilight 6:55 AM AKST 7:11 PM AKST
Astronomical Twilight 5:59 AM AKST 8:07 PM AKST
Moon 9:00 AM AKST (2/15) 12:51 AM AKST (2/15)
Length of Visible Light 10h 21m
Length of Day
8h 36m
Waxing Crescent, 31% of the Moon is Illuminated
Feb 15
Waxing Crescent
Feb 17
First Quarter
Feb 25
Full
Mar 4
Last Quarter
Mar 11
New

Hourly Weather History & Observations

Time (AKST) Temp. Windchill Dew Point Humidity Pressure Visibility Wind Dir Wind Speed Gust Speed Precip Events Conditions
12:55 AM 17.4 °F 12.1 °F 14.4 °F 88% 29.50 in 10.0 mi Variable 3.5 mph - N/A   Mostly Cloudy
1:55 AM 20.8 °F - 14.0 °F 75% 29.54 in 10.0 mi Calm Calm - N/A   Overcast
2:55 AM 11.5 °F 5.3 °F 5.5 °F 77% 29.61 in 10.0 mi Variable 3.5 mph - 0.00 in   Overcast
3:55 AM 9.7 °F -0.1 °F 3.2 °F 75% 29.66 in 10.0 mi Variable 5.8 mph - N/A   Overcast
4:55 AM 9.0 °F -0.9 °F 2.8 °F 76% 29.69 in 10.0 mi SSE 5.8 mph - N/A   Overcast
5:41 AM 10.4 °F 0.8 °F 3.2 °F 73% 29.71 in 10.0 mi Variable 5.8 mph - N/A   Overcast
5:55 AM 10.0 °F -1.9 °F 3.7 °F 76% 29.72 in 10.0 mi South 8.1 mph - N/A   Overcast
6:24 AM 10.4 °F 2.2 °F 5.0 °F 79% 29.73 in 10.0 mi Variable 4.6 mph - N/A Snow Light Snow
6:55 AM 10.4 °F 0.8 °F 5.2 °F 79% 29.74 in 10.0 mi South 5.8 mph - 0.00 in Snow Light Snow
7:24 AM 10.4 °F 4.0 °F 6.8 °F 85% 29.75 in 5.0 mi Variable 3.5 mph - N/A Snow Light Snow
7:45 AM 10.4 °F 2.2 °F 6.8 °F 85% 29.77 in 1.5 mi Variable 4.6 mph - N/A Snow Light Snow
7:55 AM 11.1 °F 4.9 °F 7.2 °F 84% 29.77 in 1.0 mi SW 3.5 mph - 0.00 in Snow Light Snow
8:16 AM 12.2 °F 4.3 °F 6.8 °F 79% 29.79 in 3.0 mi Variable 4.6 mph - N/A Snow Light Snow
8:36 AM 12.2 °F 1.7 °F 8.6 °F 85% 29.80 in 2.0 mi West 6.9 mph - N/A Snow Light Snow
8:55 AM 11.8 °F - 7.9 °F 84% 29.81 in 2.0 mi West 2.3 mph - 0.00 in Snow Light Snow
9:20 AM 12.2 °F - 8.6 °F 85% 29.78 in 1.5 mi Calm Calm - N/A Snow Light Snow
9:32 AM 12.2 °F - 8.6 °F 85% 29.84 in 2.0 mi Calm Calm - N/A Snow Light Snow
9:55 AM 12.2 °F 0.7 °F 8.1 °F 83% 29.85 in 4.0 mi West 8.1 mph - 0.00 in Snow Light Snow
10:07 AM 12.2 °F 0.7 °F 8.6 °F 85% 29.81 in 2.0 mi WSW 8.1 mph - N/A Snow Light Snow
10:29 AM 12.2 °F -0.2 °F 6.8 °F 79% 29.87 in 4.0 mi West 9.2 mph - N/A Snow Light Snow
10:55 AM 11.5 °F -0.2 °F 6.4 °F 80% 29.88 in 6.0 mi West 8.1 mph - 0.00 in Snow Light Snow
11:55 AM 11.7 °F -0.9 °F 6.3 °F 79% 29.91 in 5.0 mi West 9.2 mph - 0.00 in Snow Light Snow
12:55 PM 10.6 °F -2.2 °F 5.0 °F 78% 29.94 in 9.0 mi West 9.2 mph - 0.00 in Snow Light Snow
1:26 PM 10.4 °F -2.4 °F 3.2 °F 73% 29.95 in 10.0 mi West 9.2 mph - N/A   Overcast
1:42 PM 8.6 °F -4.7 °F 3.2 °F 79% 29.95 in 8.0 mi West 9.2 mph - N/A Snow Light Snow
1:55 PM 9.3 °F -3.8 °F 3.6 °F 77% 29.95 in 3.0 mi West 9.2 mph - 0.00 in Snow Light Snow
2:55 PM 9.0 °F -2.2 °F 3.2 °F 77% 29.98 in 3.0 mi Variable 6.9 mph - 0.00 in Snow Light Snow
3:55 PM 7.5 °F -6.9 °F 0.5 °F 73% 30.00 in 4.0 mi WSW 10.4 mph - 0.00 in Snow Light Snow
4:55 PM 4.8 °F -2.3 °F -0.9 °F 77% 30.02 in 10.0 mi Variable 3.5 mph - 0.00 in   Mostly Cloudy
5:55 PM 4.5 °F -4.7 °F -1.7 °F 76% 30.03 in 10.0 mi West 4.6 mph - 0.00 in   Overcast
6:55 PM 3.4 °F -5.9 °F -2.2 °F 78% 30.04 in 10.0 mi SSW 4.6 mph - N/A   Overcast
7:55 PM 3.4 °F - -1.8 °F 79% 30.06 in 10.0 mi Calm Calm - N/A   Mostly Cloudy
8:55 PM 2.7 °F - -2.4 °F 79% 30.07 in 10.0 mi Calm Calm - 0.00 in   Overcast
9:55 PM 1.6 °F - -3.6 °F 79% 30.08 in 10.0 mi Calm Calm - N/A   Scattered Clouds
10:55 PM -1.3 °F - -5.6 °F 82% 30.10 in 10.0 mi Calm Calm - N/A   Overcast
11:55 PM -2.7 °F - -7.4 °F 80% 30.10 in 10.0 mi Calm Calm - N/A   Overcast